Shannon, Ireland

1:46 AM IST on April 24, 2017 (GMT +0100)
Shannon

Weather History for EINN - September, 2011

Change the Weather History Date:

Thursday, September 15, 2011

  Actual Average Record
Temperature  
Mean Temperature 54 °F -  
Max Temperature 60 °F 60 °F 71 °F (2003)
Min Temperature 49 °F 48 °F 42 °F (2006)
Degree Days  
Heating Degree Days 10    
Growing Degree Days 4 (Base 50)    
Moisture  
Dew Point 50 °F    
Average Humidity 83    
Maximum Humidity 94    
Minimum Humidity 60    
Precipitation  
Precipitation 0.01 in 0.11 in - ()
Sea Level Pressure  
Sea Level Pressure 30.02 in    
Wind  
Wind Speed 8 mph ()    
Max Wind Speed 17 mph    
Max Gust Speed -    
Visibility 6.4 miles    
Events Rain    
Averages and records for this station are not official NWS values.
T = Trace of Precipitation, MM = Missing Value Source: Averaged Metar Reports

Daily Weather History Graph

Daily Weather History Graph

Search for Another Location

Airport or City:

Trip Planner

Search our weather history database for the weather conditions in past years. The results will help you decide how hot, cold, wet, or windy it might be!

Date:

Astronomy

Sep. 15, 2011 Rise Set
Actual Time 7:09 AM IST 7:51 PM IST
Civil Twilight 6:34 AM IST 8:26 PM IST
Nautical Twilight 5:52 AM IST 9:07 PM IST
Astronomical Twilight 5:08 AM IST 9:51 PM IST
Moon 8:23 PM IST (9/15) 10:39 AM IST (9/15)
Length of Visible Light 13h 52m
Length of Day
12h 42m
Waning Gibbous, 92% of the Moon is Illuminated
Sep 15
Waning Gibbous
Sep 20
Last Quarter
Sep 27
New
Oct 4
First Quarter
Oct 12
Full

Hourly Weather History & Observations

Time (IST) Temp. Dew Point Humidity Pressure Visibility Wind Dir Wind Speed Gust Speed Precip Events Conditions
12:00 AM 50.0 °F 48.2 °F 94% 30.12 in 6.2 mi ENE 1.2 mph - N/A   Mostly Cloudy
12:30 AM 50.0 °F 48.2 °F 94% 30.09 in 6.2 mi East 4.6 mph - N/A   Mostly Cloudy
1:00 AM 51.8 °F 48.2 °F 88% 30.09 in 6.2 mi ESE 5.8 mph - N/A   Mostly Cloudy
1:30 AM 51.8 °F 50.0 °F 94% 30.09 in 6.2 mi ESE 5.8 mph - N/A   Mostly Cloudy
2:00 AM 51.8 °F 50.0 °F 94% 30.09 in 6.2 mi ESE 5.8 mph - N/A   Mostly Cloudy
2:30 AM 51.8 °F 50.0 °F 94% 30.09 in 6.2 mi ESE 6.9 mph - N/A   Mostly Cloudy
3:00 AM 50.0 °F 48.2 °F 94% 30.09 in 6.2 mi East 6.9 mph - N/A   Mostly Cloudy
3:30 AM 50.0 °F 48.2 °F 94% 30.09 in 6.2 mi ESE 4.6 mph - N/A   Mostly Cloudy
4:00 AM 50.0 °F 48.2 °F 94% 30.09 in 6.2 mi ESE 6.9 mph - N/A   Mostly Cloudy
4:30 AM 50.0 °F 48.2 °F 94% 30.06 in 6.2 mi ESE 4.6 mph - N/A   Scattered Clouds
5:00 AM 50.0 °F 48.2 °F 94% 30.06 in 6.2 mi East 8.1 mph - N/A   Mostly Cloudy
5:30 AM 50.0 °F 48.2 °F 94% 30.06 in 6.2 mi East 9.2 mph - N/A   Mostly Cloudy
6:00 AM 51.8 °F 48.2 °F 88% 30.04 in 6.2 mi ESE 9.2 mph - N/A   Mostly Cloudy
6:30 AM 51.8 °F 48.2 °F 88% 30.04 in 6.2 mi ESE 8.1 mph - N/A   Mostly Cloudy
7:00 AM 51 °F 48 °F 87% 30.05 in 16 mi ESE 6.7 mph - -   Scattered Clouds
7:00 AM 51.8 °F 48.2 °F 88% 30.04 in 6.2 mi ESE 6.9 mph - N/A   Mostly Cloudy
7:30 AM 50.0 °F 48.2 °F 94% 30.04 in 6.2 mi SE 8.1 mph - N/A   Mostly Cloudy
8:00 AM 51.8 °F 48.2 °F 88% 30.04 in 6.2 mi SE 8.1 mph - N/A   Mostly Cloudy
8:30 AM 51.8 °F 48.2 °F 88% 30.04 in 6.2 mi ESE 9.2 mph - N/A   Mostly Cloudy
9:00 AM 51.8 °F 48.2 °F 88% 30.04 in 6.2 mi ESE 10.4 mph - N/A   Mostly Cloudy
9:30 AM 53.6 °F 50.0 °F 88% 30.04 in 6.2 mi ESE 10.4 mph - N/A   Mostly Cloudy
10:00 AM 53.6 °F 50.0 °F 88% 30.04 in 6.2 mi SE 11.5 mph - N/A   Mostly Cloudy
10:30 AM 55.4 °F 50.0 °F 82% 30.04 in 6.2 mi SSE 12.7 mph - N/A   Mostly Cloudy
11:00 AM 57.2 °F 50.0 °F 77% 30.04 in 6.2 mi SSE 11.5 mph - N/A   Mostly Cloudy
11:30 AM 59.0 °F 51.8 °F 77% 30.04 in 6.2 mi SSE 12.7 mph - N/A   Mostly Cloudy
12:00 PM 59.0 °F 50.0 °F 72% 30.04 in 6.2 mi SSE 12.7 mph - N/A   Mostly Cloudy
12:30 PM 60.8 °F 48.2 °F 63% 30.04 in 6.2 mi SSE 13.8 mph - N/A   Mostly Cloudy
1:00 PM 60 °F 50 °F 60% 30.04 in 25 mi SE 13.4 mph - -   Mostly Cloudy
1:00 PM 60.8 °F 50.0 °F 68% 30.04 in 6.2 mi SE 12.7 mph - N/A   Mostly Cloudy
1:30 PM 60.8 °F 50.0 °F 68% 30.04 in 6.2 mi SE 13.8 mph - N/A   Mostly Cloudy
2:00 PM 60.8 °F 50.0 °F 68% 30.01 in 6.2 mi SE 11.5 mph - N/A   Mostly Cloudy
2:30 PM 60.8 °F 50.0 °F 68% 30.01 in 6.2 mi SSE 11.5 mph - N/A   Mostly Cloudy
3:00 PM 60.8 °F 50.0 °F 68% 30.01 in 6.2 mi SSE 13.8 mph - N/A   Mostly Cloudy
3:30 PM 60.8 °F 50.0 °F 68% 30.01 in 6.2 mi SSE 15.0 mph - N/A   Mostly Cloudy
4:00 PM 60.8 °F 50.0 °F 68% 29.98 in 6.2 mi SE 13.8 mph - N/A   Mostly Cloudy
4:30 PM 59.0 °F 50.0 °F 72% 29.98 in 6.2 mi SSE 13.8 mph - N/A   Mostly Cloudy
5:00 PM 59.0 °F 51.8 °F 77% 29.98 in 6.2 mi SSE 17.3 mph - N/A   Mostly Cloudy
5:30 PM 59.0 °F 50.0 °F 72% 29.98 in 6.2 mi SE 13.8 mph - N/A Rain Light Rain
6:00 PM 57.2 °F 53.6 °F 88% 29.98 in 6.2 mi SE 12.7 mph - N/A Rain Light Rain
6:30 PM 57.2 °F 51.8 °F 82% 29.95 in 6.2 mi ESE 12.7 mph - N/A   Mostly Cloudy
7:00 PM 57.2 °F 51.8 °F 82% 29.95 in 6.2 mi SE 11.5 mph - N/A   Mostly Cloudy
7:30 PM 57.2 °F 51.8 °F 82% 29.95 in 6.2 mi ESE 11.5 mph - N/A   Mostly Cloudy
8:00 PM 57.2 °F 51.8 °F 82% 29.95 in 6.2 mi SE 11.5 mph - N/A   Mostly Cloudy
8:30 PM 57.2 °F 51.8 °F 82% 29.92 in 6.2 mi SE 11.5 mph - N/A   Mostly Cloudy
9:00 PM 57.2 °F 51.8 °F 82% 29.92 in 6.2 mi SE 13.8 mph - N/A   Mostly Cloudy
9:30 PM 57.2 °F 51.8 °F 82% 29.92 in 6.2 mi ESE 11.5 mph - N/A   Mostly Cloudy
10:00 PM 57.2 °F 51.8 °F 82% 29.92 in 6.2 mi ESE 11.5 mph - N/A   Mostly Cloudy
10:30 PM 57.2 °F 51.8 °F 82% 29.92 in 6.2 mi SE 12.7 mph - N/A   Light Drizzle
11:00 PM 57.2 °F 51.8 °F 82% 29.92 in 6.2 mi SE 12.7 mph - N/A   Mostly Cloudy
11:30 PM 57.2 °F 53.6 °F 88% 29.89 in 6.2 mi ESE 10.4 mph - N/A   Mostly Cloudy